| time (UTC) | temp C | wind direction | speed KPH | gust KPH | rain 1hr cm | rain 24hr cm | rain mn cm | humidity % | barometer mb |
| 20260502151856 | 15 | 211 | 12.9 | 17.7 | 0.00 | 0.00 | 0.00 | 46 | 1012.6 |
| 20260502151352 | 15 | 206 | 16.1 | 17.7 | 0.00 | 0.00 | 0.00 | 45 | 1012.6 |
| 20260502150850 | 13 | 189 | 11.3 | 14.5 | 0.00 | 0.00 | 0.00 | 47 | 1012.9 |
| 20260502150346 | 13 | 204 | 12.9 | 22.5 | 0.00 | 0.00 | 0.00 | 48 | 1012.9 |
| 20260502130734 | 8 | 151 | 3.2 | 3.2 | 0.00 | 0.00 | 0.00 | 58 | 1015.6 |
| 20260502130232 | 8 | 173 | 1.6 | 1.6 | 0.00 | 0.00 | 0.00 | 56 | 1015.8 |
| 20260502123718 | 8 | 205 | 8.0 | 9.7 | 0.00 | 0.00 | 0.00 | 54 | 1015.4 |
| 20260502123214 | 8 | 222 | 12.9 | 14.5 | 0.00 | 0.00 | 0.00 | 54 | 1015.1 |
| 20260502122711 | 8 | 223 | 8.0 | 11.3 | 0.00 | 0.00 | 0.00 | 55 | 1015.4 |
| 20260502122207 | 7 | 214 | 9.7 | 9.7 | 0.00 | 0.00 | 0.00 | 55 | 1015.6 |
| 20260502121706 | 7 | 179 | 9.7 | 11.3 | 0.00 | 0.00 | 0.00 | 55 | 1015.8 |
| 20260502121203 | 7 | 201 | 8.0 | 9.7 | 0.00 | 0.00 | 0.00 | 56 | 1015.5 |
| 20260502120659 | 7 | 188 | 8.0 | 12.9 | 0.00 | 0.00 | 0.00 | 56 | 1015.7 |
| 20260502120156 | 7 | 207 | 6.4 | 8.0 | 0.00 | 0.00 | 0.00 | 56 | 1015.8 |
| 20260502115654 | 7 | 206 | 6.4 | 9.7 | 0.00 | 0.00 | 0.00 | 56 | 1015.7 |
| 20260502115150 | 7 | 215 | 8.0 | 11.3 | 0.00 | 0.00 | 0.00 | 56 | 1015.9 |
| 20260502114646 | 7 | 201 | 9.7 | 11.3 | 0.00 | 0.00 | 0.00 | 57 | 1015.9 |
| 20260502114144 | 6 | 174 | 4.8 | 4.8 | 0.00 | 0.00 | 0.00 | 58 | 1016.0 |
| 20260502113641 | 6 | 201 | 4.8 | 4.8 | 0.00 | 0.00 | 0.00 | 58 | 1015.9 |
| 20260502113139 | 6 | 213 | 4.8 | 4.8 | 0.00 | 0.00 | 0.00 | 58 | 1016.1 |
| 20260502112636 | 6 | 194 | 4.8 | 4.8 | 0.00 | 0.00 | 0.00 | 59 | 1016.2 |
| 20260502112128 | 6 | 192 | 3.2 | 3.2 | 0.00 | 0.00 | 0.00 | 59 | 1016.2 |
| 20260502111625 | 5 | 222 | 8.0 | 9.7 | 0.00 | 0.00 | 0.00 | 59 | 1016.2 |
| 20260502111123 | 5 | 197 | 1.6 | 3.2 | 0.00 | 0.00 | 0.00 | 62 | 1016.2 |
| 20260502110620 | 5 | 180 | 1.6 | 1.6 | 0.00 | 0.00 | 0.00 | 61 | 1016.3 |
| 20260502110117 | 5 | 181 | 3.2 | 4.8 | 0.00 | 0.00 | 0.00 | 61 | 1016.3 |
| 20260502105615 | 5 | 184 | 3.2 | 3.2 | 0.00 | 0.00 | 0.00 | 61 | 1016.4 |
| 20260502105112 | 5 | 171 | 1.6 | 1.6 | 0.00 | 0.00 | 0.00 | 60 | 1016.4 |
| 20260502104609 | 6 | 204 | 1.6 | 1.6 | 0.00 | 0.00 | 0.00 | 59 | 1016.3 |
| 20260502104106 | 5 | 196 | 1.6 | 1.6 | 0.00 | 0.00 | 0.00 | 59 | 1016.4 |
| 20260502103604 | 5 | 170 | 1.6 | 1.6 | 0.00 | 0.00 | 0.00 | 60 | 1016.4 |
| 20260502103102 | 5 | 155 | 0.0 | 1.6 | 0.00 | 0.00 | 0.00 | 60 | 1016.1 |
| 20260502102558 | 5 | 177 | 1.6 | 1.6 | 0.00 | 0.00 | 0.00 | 60 | 1016.3 |
| 20260502102055 | 5 | 175 | 1.6 | 1.6 | 0.00 | 0.00 | 0.00 | 60 | 1016.1 |
| 20260502101553 | 5 | 192 | 1.6 | 1.6 | 0.00 | 0.00 | 0.00 | 60 | 1016.3 |
| 20260502101051 | 5 | 198 | 3.2 | 3.2 | 0.00 | 0.00 | 0.00 | 60 | 1016.4 |
| 20260502100549 | 5 | 168 | 1.6 | 1.6 | 0.00 | 0.00 | 0.00 | 60 | 1016.4 |
| 20260502091524 | 5 | 133 | 0.0 | 0.0 | 0.00 | 0.00 | 0.00 | 61 | 1016.1 |
| 20260502091021 | 5 | 247 | 3.2 | 3.2 | 0.00 | 0.00 | 0.00 | 61 | 1016.6 |
| 20260502090518 | 5 | 178 | 1.6 | 1.6 | 0.00 | 0.00 | 0.00 | 60 | 1016.4 |
| 20260502071407 | 6 | 198 | 1.6 | 1.6 | 0.00 | 0.00 | 0.00 | 57 | 1017.5 |
| 20260502070905 | 6 | 189 | 1.6 | 1.6 | 0.00 | 0.00 | 0.00 | 57 | 1017.8 |
| 20260502070402 | 6 | 249 | 1.6 | 3.2 | 0.00 | 0.00 | 0.00 | 56 | 1017.6 |
| 20260502065901 | 6 | 181 | 1.6 | 1.6 | 0.00 | 0.00 | 0.00 | 56 | 1017.8 |
| 20260502065359 | 6 | 277 | 1.6 | 1.6 | 0.00 | 0.00 | 0.00 | 56 | 1017.7 |
| 20260502064856 | 6 | 177 | 1.6 | 1.6 | 0.00 | 0.00 | 0.00 | 56 | 1017.6 |
| 20260502064354 | 7 | 164 | 1.6 | 1.6 | 0.00 | 0.00 | 0.00 | 55 | 1017.5 |
| 20260502063851 | 6 | 208 | 1.6 | 1.6 | 0.00 | 0.00 | 0.00 | 55 | 1017.8 |
| 20260502063349 | 6 | 160 | 1.6 | 1.6 | 0.00 | 0.00 | 0.00 | 56 | 1017.8 |
| 20260502062846 | 7 | 169 | 1.6 | 1.6 | 0.00 | 0.00 | 0.00 | 55 | 1017.7 |
| 20260502062343 | 7 | 251 | 3.2 | 3.2 | 0.00 | 0.00 | 0.00 | 55 | 1017.9 |
| 20260502061842 | 7 | 207 | 4.8 | 4.8 | 0.00 | 0.00 | 0.00 | 55 | 1017.9 |
| 20260502061340 | 7 | 166 | 0.0 | 1.6 | 0.00 | 0.00 | 0.00 | 55 | 1018.0 |
| 20260502060835 | 7 | 203 | 1.6 | 3.2 | 0.00 | 0.00 | 0.00 | 54 | 1017.8 |
| 20260502060330 | 7 | 209 | 4.8 | 4.8 | 0.00 | 0.00 | 0.00 | 53 | 1017.9 |
| 20260502055828 | 7 | 210 | 4.8 | 4.8 | 0.00 | 0.00 | 0.00 | 53 | 1018.0 |
| 20260502055326 | 8 | 225 | 4.8 | 4.8 | 0.00 | 0.00 | 0.00 | 52 | 1017.9 |
| 20260502054825 | 7 | 218 | 3.2 | 3.2 | 0.00 | 0.00 | 0.00 | 52 | 1017.7 |
| 20260502054323 | 7 | 164 | 1.6 | 1.6 | 0.00 | 0.00 | 0.00 | 52 | 1017.8 |
| 20260502053820 | 7 | 154 | 3.2 | 3.2 | 0.00 | 0.00 | 0.00 | 52 | 1018.0 |
| 20260502053317 | 7 | 181 | 3.2 | 3.2 | 0.00 | 0.00 | 0.00 | 52 | 1017.9 |
| 20260502052815 | 7 | 143 | 0.0 | 0.0 | 0.00 | 0.00 | 0.00 | 52 | 1018.0 |
| 20260502052313 | 7 | 176 | 1.6 | 1.6 | 0.00 | 0.00 | 0.00 | 52 | 1018.0 |
| 20260502051810 | 8 | 164 | 1.6 | 1.6 | 0.00 | 0.00 | 0.00 | 51 | 1018.1 |
| 20260502051309 | 8 | 174 | 1.6 | 3.2 | 0.00 | 0.00 | 0.00 | 51 | 1018.0 |
| 20260502050804 | 8 | 176 | 4.8 | 4.8 | 0.00 | 0.00 | 0.00 | 51 | 1018.1 |
| 20260502050301 | 7 | 147 | 0.0 | 1.6 | 0.00 | 0.00 | 0.00 | 52 | 1018.1 |
| 20260502045758 | 8 | 210 | 3.2 | 3.2 | 0.00 | 0.00 | 0.00 | 51 | 1018.1 |
| 20260502045255 | 8 | 175 | 1.6 | 1.6 | 0.00 | 0.00 | 0.00 | 51 | 1018.2 |
| 20260502044752 | 8 | 198 | 1.6 | 1.6 | 0.00 | 0.00 | 0.00 | 51 | 1018.5 |
| 20260502044248 | 8 | 162 | 1.6 | 1.6 | 0.00 | 0.00 | 0.00 | 50 | 1018.6 |
| 20260502043745 | 8 | 240 | 4.8 | 4.8 | 0.00 | 0.00 | 0.00 | 49 | 1018.3 |
| 20260502043243 | 8 | 153 | 1.6 | 3.2 | 0.00 | 0.00 | 0.00 | 49 | 1018.3 |
| 20260502042742 | 8 | 227 | 1.6 | 3.2 | 0.00 | 0.00 | 0.00 | 49 | 1018.3 |
| 20260502042240 | 9 | 184 | 3.2 | 3.2 | 0.00 | 0.00 | 0.00 | 49 | 1018.3 |
| 20260502041737 | 9 | 241 | 4.8 | 4.8 | 0.00 | 0.00 | 0.00 | 49 | 1018.6 |
| 20260502041234 | 9 | 237 | 1.6 | 3.2 | 0.00 | 0.00 | 0.00 | 49 | 1018.6 |
| 20260502040731 | 9 | 223 | 3.2 | 3.2 | 0.00 | 0.00 | 0.00 | 48 | 1018.3 |
| 20260502040228 | 9 | 216 | 3.2 | 3.2 | 0.00 | 0.00 | 0.00 | 48 | 1018.2 |
| 20260502035724 | 9 | 144 | 1.6 | 1.6 | 0.00 | 0.00 | 0.00 | 48 | 1018.5 |
| 20260502035221 | 10 | 178 | 1.6 | 3.2 | 0.00 | 0.00 | 0.00 | 47 | 1018.3 |
| 20260502034718 | 10 | 198 | 3.2 | 3.2 | 0.00 | 0.00 | 0.00 | 46 | 1018.2 |
| 20260502034217 | 10 | 234 | 6.4 | 8.0 | 0.00 | 0.00 | 0.00 | 45 | 1018.7 |
| 20260502033714 | 10 | 212 | 6.4 | 8.0 | 0.00 | 0.00 | 0.00 | 45 | 1018.5 |
| 20260502033212 | 10 | 218 | 4.8 | 4.8 | 0.00 | 0.00 | 0.00 | 46 | 1018.1 |
| 20260502032708 | 10 | 182 | 1.6 | 3.2 | 0.00 | 0.00 | 0.00 | 47 | 1018.6 |
| 20260502032204 | 10 | 194 | 4.8 | 8.0 | 0.00 | 0.00 | 0.00 | 46 | 1018.3 |
| 20260502031703 | 11 | 204 | 4.8 | 4.8 | 0.00 | 0.00 | 0.00 | 45 | 1018.6 |
| 20260502031200 | 11 | 170 | 4.8 | 4.8 | 0.00 | 0.00 | 0.00 | 45 | 1018.3 |
| 20260502030659 | 11 | 202 | 3.2 | 3.2 | 0.00 | 0.00 | 0.00 | 44 | 1018.3 |
| 20260502030156 | 11 | 194 | 4.8 | 4.8 | 0.00 | 0.00 | 0.00 | 44 | 1018.3 |
| 20260502025653 | 11 | 153 | 3.2 | 3.2 | 0.00 | 0.00 | 0.00 | 44 | 1018.3 |
| 20260502025151 | 11 | 146 | 1.6 | 1.6 | 0.00 | 0.00 | 0.00 | 44 | 1018.5 |
| 20260502024649 | 11 | 186 | 3.2 | 3.2 | 0.00 | 0.00 | 0.00 | 44 | 1018.2 |
| 20260502024147 | 11 | 179 | 3.2 | 4.8 | 0.00 | 0.00 | 0.00 | 44 | 1018.5 |
| 20260502023644 | 11 | 195 | 3.2 | 3.2 | 0.00 | 0.00 | 0.00 | 44 | 1018.3 |
| 20260502023141 | 11 | 117 | 0.0 | 0.0 | 0.00 | 0.00 | 0.00 | 43 | 1018.2 |
| 20260502022638 | 11 | 141 | 1.6 | 1.6 | 0.00 | 0.00 | 0.00 | 43 | 1018.2 |
| 20260502022135 | 11 | 157 | 1.6 | 1.6 | 0.00 | 0.00 | 0.00 | 42 | 1018.2 |
| 20260502021633 | 11 | 212 | 3.2 | 4.8 | 0.00 | 0.00 | 0.00 | 42 | 1018.2 |
| 20260502021130 | 12 | 210 | 4.8 | 4.8 | 0.00 | 0.00 | 0.00 | 42 | 1018.1 |
| 20260502020627 | 12 | 208 | 3.2 | 3.2 | 0.00 | 0.00 | 0.00 | 42 | 1018.0 |
| 20260502020124 | 12 | 191 | 1.6 | 1.6 | 0.00 | 0.00 | 0.00 | 42 | 1018.2 |
| 20260502015622 | 12 | 172 | 1.6 | 1.6 | 0.00 | 0.00 | 0.00 | 42 | 1018.2 |
| 20260502015118 | 12 | 202 | 3.2 | 3.2 | 0.00 | 0.00 | 0.00 | 42 | 1018.0 |
| 20260502014615 | 12 | 150 | 0.0 | 0.0 | 0.00 | 0.00 | 0.00 | 42 | 1018.2 |
| 20260502014112 | 13 | 182 | 1.6 | 1.6 | 0.00 | 0.00 | 0.00 | 42 | 1018.0 |
| 20260502013608 | 13 | 170 | 1.6 | 1.6 | 0.00 | 0.00 | 0.00 | 42 | 1018.0 |
| 20260502013104 | 13 | 180 | 1.6 | 3.2 | 0.00 | 0.00 | 0.00 | 41 | 1018.0 |
| 20260502012602 | 13 | 234 | 1.6 | 1.6 | 0.00 | 0.00 | 0.00 | 42 | 1018.2 |
| 20260502012100 | 14 | 175 | 1.6 | 1.6 | 0.00 | 0.00 | 0.00 | 42 | 1018.1 |
| 20260502011556 | 14 | 200 | 1.6 | 1.6 | 0.00 | 0.00 | 0.00 | 41 | 1018.1 |
| 20260502011052 | 15 | 228 | 3.2 | 3.2 | 0.00 | 0.00 | 0.00 | 40 | 1018.2 |
| 20260502010549 | 15 | 222 | 3.2 | 3.2 | 0.00 | 0.00 | 0.00 | 39 | 1018.1 |
| 20260502010045 | 15 | 214 | 3.2 | 3.2 | 0.00 | 0.00 | 0.00 | 40 | 1018.2 |
| 20260502005543 | 15 | 183 | 0.0 | 1.6 | 0.00 | 0.00 | 0.00 | 40 | 1018.2 |
| 20260502005041 | 15 | 252 | 1.6 | 1.6 | 0.00 | 0.00 | 0.00 | 40 | 1018.0 |
| 20260502004536 | 15 | 195 | 3.2 | 3.2 | 0.00 | 0.00 | 0.00 | 38 | 1018.1 |
| 20260502004033 | 16 | 262 | 4.8 | 8.0 | 0.00 | 0.00 | 0.00 | 38 | 1018.1 |
| 20260502003531 | 16 | 250 | 4.8 | 4.8 | 0.00 | 0.00 | 0.00 | 36 | 1018.0 |
| 20260502003028 | 16 | 247 | 4.8 | 8.0 | 0.00 | 0.00 | 0.00 | 37 | 1018.3 |
| 20260502002524 | 16 | 239 | 4.8 | 4.8 | 0.00 | 0.00 | 0.00 | 36 | 1018.5 |
| 20260502002022 | 16 | 247 | 3.2 | 3.2 | 0.00 | 0.00 | 0.00 | 35 | 1018.2 |
| 20260502001519 | 16 | 211 | 6.4 | 8.0 | 0.00 | 0.00 | 0.00 | 35 | 1018.3 |
| 20260502001016 | 16 | 300 | 8.0 | 9.7 | 0.00 | 0.00 | 0.00 | 35 | 1018.3 |
| 20260502000515 | 16 | 252 | 4.8 | 4.8 | 0.00 | 0.00 | 0.00 | 38 | 1018.3 |
| 20260502000011 | 16 | 238 | 11.3 | 16.1 | 0.00 | 0.00 | 0.00 | 36 | 1018.5 |
| 20260501235507 | 16 | 183 | 4.8 | 4.8 | 0.00 | 0.00 | 0.00 | 35 | 1018.6 |
| 20260501235003 | 16 | 292 | 4.8 | 4.8 | 0.00 | 0.00 | 0.00 | 36 | 1018.5 |
| 20260501234458 | 16 | 229 | 4.8 | 8.0 | 0.00 | 0.00 | 0.00 | 36 | 1018.6 |
| 20260501233957 | 16 | 348 | 9.7 | 11.3 | 0.00 | 0.00 | 0.00 | 35 | 1018.2 |
| 20260501233455 | 16 | 339 | 8.0 | 11.3 | 0.00 | 0.00 | 0.00 | 36 | 1018.5 |
| 20260501232950 | 16 | 21 | 4.8 | 8.0 | 0.00 | 0.00 | 0.00 | 36 | 1018.7 |
| 20260501232448 | 16 | 315 | 4.8 | 4.8 | 0.00 | 0.00 | 0.00 | 37 | 1018.5 |
| 20260501231945 | 16 | 308 | 11.3 | 12.9 | 0.00 | 0.00 | 0.00 | 36 | 1018.8 |
| 20260501231443 | 17 | 44 | 4.8 | 4.8 | 0.00 | 0.00 | 0.00 | 36 | 1018.6 |
| 20260501230941 | 16 | 285 | 6.4 | 8.0 | 0.00 | 0.00 | 0.00 | 37 | 1018.8 |
| 20260501230440 | 16 | 267 | 8.0 | 12.9 | 0.00 | 0.00 | 0.00 | 36 | 1018.6 |
| 20260501225937 | 16 | 22 | 4.8 | 4.8 | 0.00 | 0.00 | 0.00 | 41 | 1018.5 |
| 20260501225434 | 16 | 106 | 0.0 | 1.6 | 0.00 | 0.00 | 0.00 | 35 | 1018.6 |
| 20260501224930 | 15 | 31 | 3.2 | 3.2 | 0.00 | 0.00 | 0.00 | 39 | 1018.9 |
| 20260501224427 | 15 | 42 | 1.6 | 1.6 | 0.00 | 0.00 | 0.00 | 39 | 1018.9 |
| 20260501223924 | 15 | 354 | 6.4 | 8.0 | 0.00 | 0.00 | 0.00 | 37 | 1018.8 |
| 20260501223421 | 16 | 335 | 8.0 | 11.3 | 0.00 | 0.00 | 0.00 | 38 | 1018.9 |
| 20260501222916 | 17 | 238 | 4.8 | 8.0 | 0.00 | 0.00 | 0.00 | 38 | 1018.8 |
| 20260501222414 | 16 | 21 | 11.3 | 12.9 | 0.00 | 0.00 | 0.00 | 37 | 1018.7 |
| 20260501221910 | 16 | 6 | 11.3 | 11.3 | 0.00 | 0.00 | 0.00 | 36 | 1018.8 |
| 20260501221408 | 16 | 307 | 6.4 | 8.0 | 0.00 | 0.00 | 0.00 | 40 | 1018.9 |
| 20260501220905 | 16 | 16 | 8.0 | 9.7 | 0.00 | 0.00 | 0.00 | 36 | 1018.9 |
| 20260501220403 | 16 | 35 | 6.4 | 8.0 | 0.00 | 0.00 | 0.00 | 37 | 1018.7 |
| 20260501215858 | 15 | 1 | 4.8 | 4.8 | 0.00 | 0.00 | 0.00 | 36 | 1019.0 |
| 20260501215355 | 15 | 352 | 4.8 | 4.8 | 0.00 | 0.00 | 0.00 | 40 | 1019.0 |
| 20260501214851 | 14 | 10 | 4.8 | 8.0 | 0.00 | 0.00 | 0.00 | 40 | 1019.1 |
| 20260501214346 | 15 | 1 | 8.0 | 9.7 | 0.00 | 0.00 | 0.00 | 40 | 1019.4 |
| 20260501213842 | 15 | 32 | 12.9 | 14.5 | 0.00 | 0.00 | 0.00 | 38 | 1019.3 |
| 20260501213339 | 15 | 22 | 4.8 | 4.8 | 0.00 | 0.00 | 0.00 | 41 | 1019.2 |
| 20260501212834 | 15 | 32 | 6.4 | 8.0 | 0.00 | 0.00 | 0.00 | 39 | 1019.1 |
| 20260501212332 | 15 | 32 | 6.4 | 9.7 | 0.00 | 0.00 | 0.00 | 40 | 1019.3 |
| 20260501211828 | 15 | 339 | 14.5 | 16.1 | 0.00 | 0.00 | 0.00 | 38 | 1019.3 |
| 20260501211325 | 16 | 295 | 9.7 | 11.3 | 0.00 | 0.00 | 0.00 | 37 | 1019.0 |
| 20260501210817 | 15 | 60 | 1.6 | 1.6 | 0.00 | 0.00 | 0.00 | 42 | 1019.1 |
| 20260501210314 | 14 | 11 | 6.4 | 8.0 | 0.00 | 0.00 | 0.00 | 41 | 1019.2 |
| 20260501205810 | 14 | 358 | 6.4 | 9.7 | 0.00 | 0.00 | 0.00 | 42 | 1019.4 |
| 20260501205308 | 15 | 38 | 11.3 | 12.9 | 0.00 | 0.00 | 0.00 | 41 | 1019.7 |
| 20260501204804 | 15 | 309 | 4.8 | 4.8 | 0.00 | 0.00 | 0.00 | 39 | 1019.7 |
| 20260501204301 | 16 | 290 | 4.8 | 8.0 | 0.00 | 0.00 | 0.00 | 43 | 1019.7 |
| 20260501203757 | 15 | 33 | 3.2 | 3.2 | 0.00 | 0.00 | 0.00 | 42 | 1019.6 |
| 20260501203255 | 15 | 349 | 16.1 | 20.9 | 0.00 | 0.00 | 0.00 | 41 | 1019.5 |
| 20260501202751 | 15 | 0 | 11.3 | 12.9 | 0.00 | 0.00 | 0.00 | 41 | 1019.7 |
| 20260501202248 | 15 | 38 | 4.8 | 4.8 | 0.00 | 0.00 | 0.00 | 42 | 1019.5 |
| 20260501201745 | 15 | 150 | 3.2 | 3.2 | 0.00 | 0.00 | 0.00 | 38 | 1019.6 |
| 20260501201242 | 15 | 71 | 1.6 | 3.2 | 0.00 | 0.00 | 0.00 | 39 | 1019.7 |
| 20260501200739 | 15 | 321 | 11.3 | 12.9 | 0.00 | 0.00 | 0.00 | 42 | 1019.7 |
| 20260501200236 | 15 | 10 | 8.0 | 9.7 | 0.00 | 0.00 | 0.00 | 40 | 1019.7 |
| 20260501195733 | 15 | 44 | 8.0 | 9.7 | 0.00 | 0.00 | 0.00 | 43 | 1019.9 |
| 20260501195229 | 15 | 338 | 8.0 | 9.7 | 0.00 | 0.00 | 0.00 | 42 | 1019.8 |
| 20260501194725 | 14 | 29 | 3.2 | 3.2 | 0.00 | 0.00 | 0.00 | 41 | 1019.6 |
| 20260501194221 | 15 | 342 | 9.7 | 11.3 | 0.00 | 0.00 | 0.00 | 42 | 1019.7 |
| 20260501193718 | 15 | 34 | 6.4 | 9.7 | 0.00 | 0.00 | 0.00 | 39 | 1019.8 |
| 20260501193216 | 15 | 4 | 12.9 | 17.7 | 0.00 | 0.00 | 0.00 | 42 | 1019.8 |
| 20260501192714 | 15 | 40 | 11.3 | 14.5 | 0.00 | 0.00 | 0.00 | 42 | 1019.7 |
| 20260501192210 | 15 | 27 | 8.0 | 9.7 | 0.00 | 0.00 | 0.00 | 40 | 1019.6 |
| 20260501191708 | 16 | 10 | 9.7 | 12.9 | 0.00 | 0.00 | 0.00 | 42 | 1019.7 |
| 20260501191205 | 15 | 335 | 9.7 | 12.9 | 0.00 | 0.00 | 0.00 | 40 | 1019.6 |
| 20260501190701 | 15 | 21 | 11.3 | 14.5 | 0.00 | 0.00 | 0.00 | 40 | 1019.9 |
| 20260501190156 | 15 | 357 | 9.7 | 16.1 | 0.00 | 0.00 | 0.00 | 42 | 1019.8 |
| 20260501185652 | 13 | 318 | 17.7 | 24.1 | 0.00 | 0.00 | 0.00 | 43 | 1019.8 |
| 20260501185148 | 13 | 16 | 9.7 | 11.3 | 0.00 | 0.00 | 0.00 | 43 | 1019.7 |
| 20260501184644 | 15 | 49 | 14.5 | 16.1 | 0.00 | 0.00 | 0.00 | 43 | 1019.8 |
| 20260501184139 | 14 | 22 | 8.0 | 11.3 | 0.00 | 0.00 | 0.00 | 40 | 1019.9 |
| 20260501183636 | 13 | 18 | 11.3 | 14.5 | 0.00 | 0.00 | 0.00 | 46 | 1019.7 |
| 20260501183132 | 13 | 108 | 4.8 | 4.8 | 0.00 | 0.00 | 0.00 | 43 | 1019.8 |
| 20260501182624 | 14 | 48 | 12.9 | 16.1 | 0.00 | 0.00 | 0.00 | 43 | 1020.0 |
| 20260501182120 | 14 | 58 | 12.9 | 14.5 | 0.00 | 0.00 | 0.00 | 44 | 1019.7 |
| 20260501181618 | 14 | 54 | 8.0 | 11.3 | 0.00 | 0.00 | 0.00 | 45 | 1019.9 |
| 20260501181115 | 13 | 6 | 4.8 | 4.8 | 0.00 | 0.00 | 0.00 | 45 | 1020.4 |
| 20260501180613 | 13 | 24 | 8.0 | 9.7 | 0.00 | 0.00 | 0.00 | 45 | 1019.9 |
| 20260501180109 | 13 | 37 | 8.0 | 9.7 | 0.00 | 0.00 | 0.00 | 43 | 1020.0 |
| 20260501175606 | 13 | 2 | 12.9 | 12.9 | 0.00 | 0.00 | 0.00 | 45 | 1020.0 |
| 20260501175102 | 12 | 22 | 14.5 | 17.7 | 0.00 | 0.00 | 0.00 | 45 | 1020.1 |
| 20260501174559 | 13 | 27 | 8.0 | 12.9 | 0.00 | 0.00 | 0.00 | 46 | 1020.1 |
| 20260501174057 | 13 | 51 | 6.4 | 9.7 | 0.00 | 0.00 | 0.00 | 44 | 1020.3 |
| 20260501173554 | 13 | 62 | 4.8 | 8.0 | 0.00 | 0.00 | 0.00 | 47 | 1020.4 |
| 20260501173050 | 13 | 29 | 4.8 | 4.8 | 0.00 | 0.00 | 0.00 | 45 | 1020.1 |
| 20260501172546 | 13 | 39 | 3.2 | 3.2 | 0.00 | 0.00 | 0.00 | 44 | 1020.4 |
| 20260501172042 | 12 | 347 | 8.0 | 11.3 | 0.00 | 0.00 | 0.00 | 48 | 1020.4 |
| 20260501171538 | 12 | 338 | 6.4 | 9.7 | 0.00 | 0.00 | 0.00 | 46 | 1020.4 |
| 20260501171035 | 12 | 31 | 9.7 | 11.3 | 0.00 | 0.00 | 0.00 | 47 | 1020.6 |
| 20260501170531 | 12 | 24 | 4.8 | 8.0 | 0.00 | 0.00 | 0.00 | 49 | 1020.5 |
| 20260501170029 | 12 | 340 | 11.3 | 12.9 | 0.00 | 0.00 | 0.00 | 46 | 1020.4 |
| 20260501165527 | 11 | 347 | 8.0 | 11.3 | 0.00 | 0.00 | 0.00 | 47 | 1020.4 |
| 20260501165024 | 12 | 7 | 6.4 | 8.0 | 0.00 | 0.00 | 0.00 | 46 | 1020.5 |
| 20260501164521 | 11 | 351 | 14.5 | 14.5 | 0.00 | 0.00 | 0.00 | 49 | 1020.3 |
| 20260501164018 | 11 | 323 | 4.8 | 4.8 | 0.00 | 0.00 | 0.00 | 47 | 1020.5 |
| 20260501163515 | 11 | 323 | 8.0 | 11.3 | 0.00 | 0.00 | 0.00 | 48 | 1020.5 |
| 20260501163011 | 11 | 278 | 8.0 | 9.7 | 0.00 | 0.00 | 0.00 | 47 | 1020.5 |
| 20260501162508 | 11 | 335 | 4.8 | 4.8 | 0.00 | 0.00 | 0.00 | 46 | 1020.6 |
| 20260501162005 | 11 | 292 | 12.9 | 17.7 | 0.00 | 0.00 | 0.00 | 47 | 1020.4 |
| 20260501161502 | 11 | 337 | 4.8 | 8.0 | 0.00 | 0.00 | 0.00 | 47 | 1020.5 |
| 20260501160958 | 11 | 309 | 6.4 | 9.7 | 0.00 | 0.00 | 0.00 | 49 | 1020.6 |
| 20260501160456 | 10 | 344 | 9.7 | 9.7 | 0.00 | 0.00 | 0.00 | 47 | 1020.6 |
| 20260501155952 | 10 | 345 | 6.4 | 9.7 | 0.00 | 0.00 | 0.00 | 48 | 1020.4 |
| 20260501155449 | 10 | 311 | 8.0 | 9.7 | 0.00 | 0.00 | 0.00 | 48 | 1020.6 |
| 20260501154946 | 10 | 177 | 1.6 | 1.6 | 0.00 | 0.00 | 0.00 | 49 | 1020.5 |
| 20260501154444 | 10 | 318 | 8.0 | 9.7 | 0.00 | 0.00 | 0.00 | 49 | 1020.5 |
| 20260501153940 | 9 | 311 | 6.4 | 9.7 | 0.00 | 0.00 | 0.00 | 51 | 1020.7 |
| 20260501153438 | 9 | 325 | 1.6 | 3.2 | 0.00 | 0.00 | 0.00 | 52 | 1020.6 |
| 20260501152933 | 9 | 344 | 1.6 | 1.6 | 0.00 | 0.00 | 0.00 | 52 | 1020.6 |
| 20260501152431 | 8 | 294 | 4.8 | 4.8 | 0.00 | 0.00 | 0.00 | 54 | 1020.8 |